CAPE
1189 1548 1692 1804 1769 1725 1547 1647 1751 1737 1701 1716 1603 1563 1462 1390 1282 1143 1003 782 627 516 93 13 11 10 12 21 23 22 37 33 26 37 24 18 20 22 11 11 24 13 35
1595 1650 1615 1799 1797 1700 1696 1676 1788 1891 1904 1793 1626 1583 1477 1356 1184 942 666 530 469 356 9 8 8 5 6 8 10 7 6 12 27 43 39 41 29 20 19 43 18 13 35
1662 1783 1627 1676 1864 1808 1856 1821 1851 1941 1901 1793 1699 1579 1506 1342 1073 707 710 657 650 500 35 11 5 2 3 5 6 3 0 0 12 13 8 4 20 75 75 84 81 58 46
1604 1751 1591 1681 1833 1983 1902 1793 1777 1877 1808 1704 1623 1492 1368 1205 816 858 795 594 588 598 62 55 68 15 0 2 3 6 4 0 0 0 0 0 19 55 47 48 41 40 42
1577 1607 1615 1668 1737 1910 1804 1937 1729 1645 1530 1484 1391 1377 1247 970 779 887 697 564 612 647 260 120 51 8 0 2 4 2 1 0 0 0 0 1 2 6 14 22 22 21 13
1256 1037 1299 1478 1679 1883 1915 1893 1790 1594 1368 1247 1216 1152 1120 908 827 771 648 579 623 430 9 18 15 0 0 0 3 0 0 0 0 0 0 1 1 24 18 17 16 16 21
694 630 408 788 1019 1587 1868 1853 1634 1472 1248 1250 1140 1033 966 813 661 663 524 462 266 90 13 17 1 0 0 0 0 0 0 0 0 0 0 0 4 16 22 19 17 18 17
425 299 245 366 611 669 1176 1511 1273 1278 1168 1199 921 830 766 539 467 430 432 226 38 0 167 151 2 0 0 0 0 0 0 0 0 0 0 0 18 16 19 15 13 11 11
176 105 81 209 310 376 335 547 1034 1096 1044 1082 718 512 413 332 283 298 183 30 1 0 82 9 0 0 0 0 0 0 0 0 0 0 0 1 11 11 12 11 7 8 7
188 121 76 64 94 173 91 205 447 796 897 903 465 291 190 205 175 120 0 0 0 0 1 6 0 0 0 0 0 0 0 0 0 0 0 5 14 10 8 7 6 6 5
314 80 60 11 2 60 67 57 145 254 528 462 356 203 149 97 33 0 0 0 0 0 0 1 0 0 0 0 0 0 0 0 0 0 0 15 12 8 7 3 3 4 5
160 46 54 10 7 17 22 50 25 20 101 234 260 142 72 56 0 0 0 0 0 0 1 14 3 0 0 0 0 0 0 0 0 0 0 14 9 6 6 5 5 5 2
84 150 9 15 19 0 2 48 47 41 51 178 194 85 38 11 0 0 0 0 0 0 0 0 0 0 0 0 0 0 0 0 0 0 1 10 7 7 8 8 6 2 0
37 38 14 7 36 13 0 4 28 26 27 107 100 88 19 0 0 0 0 0 0 0 3 2 0 0 0 0 0 0 0 0 0 0 0 7 10 3 4 4 4 0 0
47 23 12 24 7 14 3 12 1 29 65 75 143 90 35 0 0 0 0 0 0 0 6 4 0 0 0 0 0 0 0 0 0 0 0 1 10 9 4 4 1 0 0
39 25 36 20 20 5 15 38 15 32 31 68 127 124 40 6 0 0 0 0 7 3 11 4 0 0 0 0 0 0 0 0 0 0 0 0 0 13 9 5 1 0 0
22 34 36 27 23 8 20 10 16 37 13 69 92 116 57 23 12 0 13 9 8 23 25 10 12 6 1 0 0 0 0 0 0 0 0 0 0 1 6 11 4 0 0
7 33 14 22 3 16 24 8 2 1 4 30 71 100 97 41 7 1 10 17 27 33 27 25 18 17 4 0 0 0 0 0 0 0 0 0 0 0 2 0 0 0 0
7 12 16 8 7 7 7 13 14 8 9 55 74 76 88 33 28 10 1 3 21 25 25 25 20 12 8 0 0 0 0 0 0 0 0 0 0 0 0 0 0 0 0
16 27 11 14 5 4 20 6 10 16 27 47 37 62 93 62 13 0 2 1 3 5 1 7 15 17 11 2 0 0 0 0 0 0 0 0 0 0 0 0 0 0 0
4 18 16 13 15 0 13 18 24 13 5 2 12 34 95 71 8 1 0 0 0 0 0 0 0 12 25 17 0 0 0 0 0 0 0 0 0 0 0 0 0 0 0
0 1 0 3 8 1 23 6 30 16 2 61 65 27 58 51 38 7 0 0 0 0 0 8 10 25 22 7 3 3 0 0 0 0 0 2 19 3 2 0 0 0 0
0 1 3 7 3 3 4 12 17 3 4 96 36 52 73 68 68 73 84 94 107 82 58 50 44 30 35 21 18 0 1 0 4 7 3 0 19 5 18 24 5 0 0
0 0 1 1 0 0 1 4 10 11 13 9 8 0 68 66 95 88 81 103 125 99 85 74 71 62 62 51 18 3 12 17 108 7 5 0 2 13 4 17 4 5 0
0 0 4 2 0 0 0 0 0 1 1 3 2 32 9 1 1 7 3 0 4 34 60 55 73 108 124 90 40 45 41 40 38 31 17 7 5 3 2 22 6 1 6
1 0 0 0 0 0 0 0 0 0 0 0 0 0 0 0 0 0 0 0 18 27 24 50 102 92 99 81 66 66 57 41 45 60 21 32 11 8 11 16 10 6 7
CIN
-60 -12 -6 -6 -7 -10 -31 -40 -70 -70 -41 -36 -115 -17 -1 0 0 0 0 0 0 0 -81 -102 0 0 0 0 -0 -0 -0 -0 -0 0 -0 0 0 0 0 0 -1 -8 -0
-49 -3 -29 -2 -2 -25 -34 -44 -62 -65 -49 -47 -44 -13 0 0 0 0 0 -4 -1 -6 -158 0 0 0 0 0 0 0 -0 -5 -4 -1 -1 -2 -0 0 0 0 -0 -0 -2
-42 -63 -79 -28 -3 -22 -18 -25 -56 -43 -32 -37 -29 -14 0 0 0 0 0 0 0 -7 -118 -93 0 0 0 0 0 0 -0 0 -0 -2 -5 -1 -2 0 0 0 -0 0 -0
-21 -11 -23 -59 -36 -34 -15 -28 -29 -15 -11 -22 -14 -8 -7 0 0 0 0 0 0 0 -97 -88 -70 0 -0 0 0 0 0 0 0 0 0 0 -2 -0 -1 0 0 0 -0
-21 -1 -1 -0 -10 -22 -25 -14 -18 -5 -6 -7 -25 -35 -7 0 -2 0 -0 0 0 -0 -29 -45 -111 0 0 0 0 0 0 0 0 0 0 -0 -1 0 0 -0 -1 -0 -0
-55 -36 0 -1 -0 -0 -6 -15 -7 -4 -13 -11 -13 -35 -10 0 0 0 -0 -0 0 -8 -188 -163 -118 0 0 0 0 0 0 0 0 0 0 -4 -1 0 0 0 0 0 0
-90 -90 -47 -28 -5 -0 0 -0 -26 -29 -13 -15 -40 -41 -6 -0 0 -0 -0 -0 -19 -78 -164 -83 -5 0 0 0 0 0 0 0 0 0 0 0 -1 0 0 0 0 -0 0
-80 -103 -87 -42 -29 -11 -4 -0 -6 -46 -13 -3 -75 -45 -10 -7 -0 -1 -0 -4 -104 -10 -52 -14 0 0 0 0 0 0 0 0 0 0 0 -0 -0 0 0 0 0 0 0
-114 -108 -65 -86 -1 -24 -8 -13 -1 -20 -19 -0 -19 -62 -41 -29 -5 -2 -9 -26 -29 -10 -66 -30 0 0 0 0 0 0 0 0 0 0 0 -0 0 0 0 0 0 0 0
-65 -71 -131 -55 -57 -6 -19 -6 -27 -9 -13 -0 -35 -63 -115 -33 -13 -43 0 0 0 0 -24 -26 0 0 0 0 0 0 0 0 0 0 0 -2 0 0 0 0 0 0 0
-42 -108 -110 -94 -74 -2 -0 -17 -9 -8 -12 -6 -2 -77 -71 -41 -20 0 0 0 0 0 0 -54 0 0 0 0 0 0 0 0 0 0 0 -0 0 0 0 0 0 0 0
-39 -59 -30 -8 -20 -30 -8 -2 -0 -1 -10 -8 -2 -27 -107 -71 0 0 0 0 0 0 -84 -161 -62 0 0 0 0 0 0 0 0 0 0 -0 0 0 0 0 -0 0 0
-14 -7 -57 -3 -5 0 -0 -0 0 0 -3 -7 -1 -50 -93 -50 0 0 0 0 0 0 0 0 0 0 0 0 0 0 0 0 0 0 -2 -1 0 0 0 0 0 -0 0
-34 -25 0 0 -0 -8 -5 -3 -1 0 -0 -6 -21 -84 -105 0 0 0 0 0 0 -1 -76 -104 0 0 0 0 0 0 0 0 0 0 -3 -3 -0 -0 0 0 0 0 0
-0 -0 0 -2 -0 -0 -2 -0 -0 0 -0 -14 -47 -77 -106 0 0 0 0 0 0 0 -52 -78 0 0 0 0 0 0 0 0 0 0 0 -3 -2 0 -0 -0 0 0 0
-0 -2 0 0 -0 -3 0 0 0 0 -10 -18 -44 -91 -90 -240 0 0 0 -26 -114 -44 -46 -81 0 0 0 0 0 0 0 0 0 0 0 0 -0 -1 -0 0 0 0 0
-1 -7 0 0 0 -2 -0 0 -0 -7 -15 -32 -49 -42 -110 -153 -245 -0 -48 -38 -24 -14 -40 -97 -110 -162 -108 0 0 0 0 0 0 0 0 0 0 -3 -2 -0 -0 0 0
-1 -0 -3 -0 -0 -2 -2 -5 -1 -1 -1 -26 -39 -31 -42 -140 -150 -25 -16 -20 -9 -28 -60 -61 -100 -107 -156 0 0 0 0 0 0 0 0 0 0 0 -3 0 0 0 0
-3 -3 0 0 -4 -27 0 -2 -8 -0 -4 -45 -42 -8 -14 -38 -117 -74 -28 -65 -16 -51 -62 -48 -56 -71 -84 -36 0 0 0 0 0 0 0 0 0 0 0 0 0 0 0
-0 -0 -1 0 -2 -0 -0 -0 -0 0 -5 -30 -18 -14 -19 -15 -29 -20 -33 -68 -59 -96 -71 -84 -60 -58 -55 -82 0 0 0 0 0 0 0 0 0 0 0 0 0 0 0
-4 -0 -5 -4 -3 0 0 0 0 0 0 -0 -36 -45 -8 -8 -8 -85 -0 -43 -0 0 0 0 0 -67 -39 -22 0 0 0 0 0 0 0 0 0 0 0 0 0 0 0
0 -1 0 0 -8 0 0 -2 0 0 -2 -8 -3 -0 -42 -170 -205 -263 -50 -22 -16 -26 0 -90 -72 -65 -53 -45 -45 -34 0 0 0 0 0 -3 -0 -1 -1 0 0 0 0
0 0 0 -2 -0 -14 -0 0 0 -0 0 -7 -11 -45 -43 -79 -81 -77 -43 -39 -54 -48 -59 -35 -36 -49 -46 -35 -25 0 0 0 -11 -5 -4 -3 -5 0 0 -1 -9 0 0
0 0 0 0 0 0 0 0 -0 -0 -0 -0 -0 0 -11 -31 -37 -52 -30 -55 -63 -33 -32 -38 -30 -38 -31 -23 -3 -2 -2 -4 0 -3 -4 0 -13 -0 0 0 -6 -8 0
0 0 0 0 0 0 0 0 -0 -0 -0 0 0 -3 -14 -27 0 -131 -123 0 -112 -84 -77 -54 -41 -38 -24 -16 -19 -10 -0 0 -1 -1 -1 -7 -0 0 -0 0 -2 -1 0
0 0 0 0 0 0 0 0 0 0 0 0 0 0 0 0 0 0 0 0 -173 -143 -108 -85 -53 -39 -22 -27 -26 -14 -4 -1 -2 -0 -4 0 -0 -0 -0 0 -0 -0 -0
Wind_Speed
35 36 39 42 35 38 31 30 41 45 48 44 58 38 22 22 21 22 24 26 29 30 nan nan nan nan nan nan nan nan nan nan nan nan nan nan nan nan nan nan nan nan nan
29 38 40 41 38 39 37 37 45 51 44 56 46 28 21 22 21 20 23 26 28 32 nan nan nan nan nan nan nan nan nan nan nan nan nan nan nan nan nan nan nan nan nan
25 32 43 39 39 41 43 44 51 52 46 49 44 36 28 22 21 18 21 26 29 33 nan nan nan nan nan nan nan nan nan nan nan nan nan nan nan nan nan nan nan nan nan
32 31 37 40 41 41 43 46 46 49 42 45 48 38 30 25 20 19 21 24 29 33 nan nan nan nan nan nan nan nan nan nan nan nan nan nan nan nan nan nan nan nan nan
34 38 36 44 45 46 46 48 44 43 46 41 46 42 29 24 18 18 21 24 26 31 34 34 nan nan nan nan nan nan nan nan nan nan nan nan nan nan nan nan nan nan nan
34 33 32 41 46 48 52 54 52 43 46 47 45 39 30 17 18 16 22 24 27 32 nan nan nan nan nan nan nan nan nan nan nan nan nan nan nan nan nan nan nan nan nan
29 35 35 21 36 40 45 45 52 49 46 42 41 31 32 25 20 18 24 21 27 nan nan nan nan nan nan nan nan nan nan nan nan nan nan nan nan nan nan nan nan nan nan
27 24 37 33 32 39 39 44 45 47 43 30 42 39 32 24 25 22 23 24 nan nan 36 39 nan nan nan nan nan nan nan nan nan nan nan nan nan nan nan nan nan nan nan
18 20 nan 39 35 38 28 34 41 47 40 37 35 37 36 32 29 27 23 nan nan nan nan nan nan nan nan nan nan nan nan nan nan nan nan nan nan nan nan nan nan nan nan
15 10 nan nan nan 40 nan 24 39 32 40 35 37 34 35 32 34 31 nan nan nan nan nan nan nan nan nan nan nan nan nan nan nan nan nan nan nan nan nan nan nan nan nan
11 nan nan nan nan nan nan nan 48 35 32 30 34 41 44 nan nan nan nan nan nan nan nan nan nan nan nan nan nan nan nan nan nan nan nan nan nan nan nan nan nan nan nan
10 nan nan nan nan nan nan nan nan nan 30 25 35 41 nan nan nan nan nan nan nan nan nan nan nan nan nan nan nan nan nan nan nan nan nan nan nan nan nan nan nan nan nan
nan 11 nan nan nan nan nan nan nan nan nan 39 38 nan nan nan nan nan nan nan nan nan nan nan nan nan nan nan nan nan nan nan nan nan nan nan nan nan nan nan nan nan nan
nan nan nan nan nan nan nan nan nan nan nan 36 48 nan nan nan nan nan nan nan nan nan nan nan nan nan nan nan nan nan nan nan nan nan nan nan nan nan nan nan nan nan nan
nan nan nan nan nan nan nan nan nan nan nan nan 42 nan nan nan nan nan nan nan nan nan nan nan nan nan nan nan nan nan nan nan nan nan nan nan nan nan nan nan nan nan nan
nan nan nan nan nan nan nan nan nan nan nan nan 36 34 nan nan nan nan nan nan nan nan nan nan nan nan nan nan nan nan nan nan nan nan nan nan nan nan nan nan nan nan nan
nan nan nan nan nan nan nan nan nan nan nan nan nan 39 nan nan nan nan nan nan nan nan nan nan nan nan nan nan nan nan nan nan nan nan nan nan nan nan nan nan nan nan nan
nan nan nan nan nan nan nan nan nan nan nan nan nan 16 nan nan nan nan nan nan nan nan nan nan nan nan nan nan nan nan nan nan nan nan nan nan nan nan nan nan nan nan nan
nan nan nan nan nan nan nan nan nan nan nan nan nan nan nan nan nan nan nan nan nan nan nan nan nan nan nan nan nan nan nan nan nan nan nan nan nan nan nan nan nan nan nan
nan nan nan nan nan nan nan nan nan nan nan nan nan nan nan nan nan nan nan nan nan nan nan nan nan nan nan nan nan nan nan nan nan nan nan nan nan nan nan nan nan nan nan
nan nan nan nan nan nan nan nan nan nan nan nan nan nan nan nan nan nan nan nan nan nan nan nan nan nan nan nan nan nan nan nan nan nan nan nan nan nan nan nan nan nan nan
nan nan nan nan nan nan nan nan nan nan nan nan nan nan nan nan nan nan nan nan nan nan nan nan nan nan nan nan nan nan nan nan nan nan nan nan nan nan nan nan nan nan nan
nan nan nan nan nan nan nan nan nan nan nan nan nan nan nan nan nan nan nan nan 11 nan nan nan nan nan nan nan nan nan nan nan nan nan nan nan nan nan nan nan nan nan nan
nan nan nan nan nan nan nan nan nan nan nan nan nan nan nan nan nan nan nan 10 16 nan nan nan nan nan nan nan nan nan nan nan 34 nan nan nan nan nan nan nan nan nan nan
nan nan nan nan nan nan nan nan nan nan nan nan nan nan nan nan nan nan nan nan nan nan nan nan nan 21 24 nan nan nan nan nan nan nan nan nan nan nan nan nan nan nan nan
nan nan nan nan nan nan nan nan nan nan nan nan nan nan nan nan nan nan nan nan nan nan nan nan 21 nan nan nan nan nan nan nan nan nan nan nan nan nan nan nan nan nan nan
Wind_Direction
250 257 271 268 268 267 277 277 284 290 286 282 273 266 256 263 264 267 285 291 293 295 nan nan nan nan nan nan nan nan nan nan nan nan nan nan nan nan nan nan nan nan nan
264 271 276 272 283 292 283 290 285 284 286 280 269 252 252 254 260 272 286 292 296 295 nan nan nan nan nan nan nan nan nan nan nan nan nan nan nan nan nan nan nan nan nan
270 278 281 289 285 285 288 284 285 282 287 284 278 262 249 261 269 282 287 294 295 293 nan nan nan nan nan nan nan nan nan nan nan nan nan nan nan nan nan nan nan nan nan
267 266 279 293 292 284 282 276 273 274 277 277 275 258 250 250 268 284 290 296 293 293 nan nan nan nan nan nan nan nan nan nan nan nan nan nan nan nan nan nan nan nan nan
259 256 265 271 278 277 274 275 277 275 275 269 271 265 246 249 265 284 294 297 298 297 291 288 nan nan nan nan nan nan nan nan nan nan nan nan nan nan nan nan nan nan nan
260 248 235 261 268 270 282 285 286 285 287 282 274 254 259 258 266 280 286 290 291 290 nan nan nan nan nan nan nan nan nan nan nan nan nan nan nan nan nan nan nan nan nan
284 252 231 238 261 268 276 278 287 288 296 285 266 256 266 259 264 275 280 288 288 nan nan nan nan nan nan nan nan nan nan nan nan nan nan nan nan nan nan nan nan nan nan
313 272 223 221 246 248 271 274 279 280 286 278 267 265 265 260 260 261 274 276 nan nan 286 288 nan nan nan nan nan nan nan nan nan nan nan nan nan nan nan nan nan nan nan
306 264 nan 236 238 247 247 267 272 276 277 277 258 258 257 253 252 255 264 nan nan nan nan nan nan nan nan nan nan nan nan nan nan nan nan nan nan nan nan nan nan nan nan
337 279 nan nan nan 247 nan 238 262 269 268 257 260 242 244 247 255 257 nan nan nan nan nan nan nan nan nan nan nan nan nan nan nan nan nan nan nan nan nan nan nan nan nan
339 nan nan nan nan nan nan nan 251 247 252 263 225 238 240 nan nan nan nan nan nan nan nan nan nan nan nan nan nan nan nan nan nan nan nan nan nan nan nan nan nan nan nan
359 nan nan nan nan nan nan nan nan nan 225 209 224 228 nan nan nan nan nan nan nan nan nan nan nan nan nan nan nan nan nan nan nan nan nan nan nan nan nan nan nan nan nan
nan 349 nan nan nan nan nan nan nan nan nan 217 220 nan nan nan nan nan nan nan nan nan nan nan nan nan nan nan nan nan nan nan nan nan nan nan nan nan nan nan nan nan nan
nan nan nan nan nan nan nan nan nan nan nan 206 222 nan nan nan nan nan nan nan nan nan nan nan nan nan nan nan nan nan nan nan nan nan nan nan nan nan nan nan nan nan nan
nan nan nan nan nan nan nan nan nan nan nan nan 221 nan nan nan nan nan nan nan nan nan nan nan nan nan nan nan nan nan nan nan nan nan nan nan nan nan nan nan nan nan nan
nan nan nan nan nan nan nan nan nan nan nan nan 222 236 nan nan nan nan nan nan nan nan nan nan nan nan nan nan nan nan nan nan nan nan nan nan nan nan nan nan nan nan nan
nan nan nan nan nan nan nan nan nan nan nan nan nan 237 nan nan nan nan nan nan nan nan nan nan nan nan nan nan nan nan nan nan nan nan nan nan nan nan nan nan nan nan nan
nan nan nan nan nan nan nan nan nan nan nan nan nan 226 nan nan nan nan nan nan nan nan nan nan nan nan nan nan nan nan nan nan nan nan nan nan nan nan nan nan nan nan nan
nan nan nan nan nan nan nan nan nan nan nan nan nan nan nan nan nan nan nan nan nan nan nan nan nan nan nan nan nan nan nan nan nan nan nan nan nan nan nan nan nan nan nan
nan nan nan nan nan nan nan nan nan nan nan nan nan nan nan nan nan nan nan nan nan nan nan nan nan nan nan nan nan nan nan nan nan nan nan nan nan nan nan nan nan nan nan
nan nan nan nan nan nan nan nan nan nan nan nan nan nan nan nan nan nan nan nan nan nan nan nan nan nan nan nan nan nan nan nan nan nan nan nan nan nan nan nan nan nan nan
nan nan nan nan nan nan nan nan nan nan nan nan nan nan nan nan nan nan nan nan nan nan nan nan nan nan nan nan nan nan nan nan nan nan nan nan nan nan nan nan nan nan nan
nan nan nan nan nan nan nan nan nan nan nan nan nan nan nan nan nan nan nan nan 236 nan nan nan nan nan nan nan nan nan nan nan nan nan nan nan nan nan nan nan nan nan nan
nan nan nan nan nan nan nan nan nan nan nan nan nan nan nan nan nan nan nan 257 248 nan nan nan nan nan nan nan nan nan nan nan 274 nan nan nan nan nan nan nan nan nan nan
nan nan nan nan nan nan nan nan nan nan nan nan nan nan nan nan nan nan nan nan nan nan nan nan nan 278 275 nan nan nan nan nan nan nan nan nan nan nan nan nan nan nan nan
nan nan nan nan nan nan nan nan nan nan nan nan nan nan nan nan nan nan nan nan nan nan nan nan 286 nan nan nan nan nan nan nan nan nan nan nan nan nan nan nan nan nan nan